www.pogodaiklimat.ru

Погода и климат >> Архив погоды >> Россия >> Коми >> Ухта


АРХИВ ПОГОДЫ в Ухте

Время (UTC), дата Ветер
(напр.,м/с)
 
Видим.   Явления Облачность Т
(С)
Тd
(С)
f
(%)
Тe
(С)
Тes
(С)
Комфортность P
(гПа)
Po
(гПа)
Тmin
(С)
Tmax
(С)
R
(мм)
R24
(мм)
S
(см)
00 11.11 З 2 10 км 10/0
[Ac und]
-11.6 -12.9 90 -16 -16 прохладно 1044.0 1025.3
03 11.11 З 4 10 км 10/0
[Ac und]
-10.8 -12.1 90 -18 -18 прохладно 1042.2 1023.6 -15.0 9
06 11.11 З 3 12 км 10/0
[Ac trans Ci fib]
-11.2 -12.5 90 -17 -17 прохладно 1041.7 1023.0
09 11.11 З 4 12 км 3/1 600 м
[Sc Ci fib]
-9.4 -11.5 85 -16 -16 прохладно 1040.6 1022.2
12 11.11 З 4
{10}
12 км 4/3 600 м
[Sc Ci fib]
-10.4 -12.4 85 -17 -17 прохладно 1040.1 1021.6
15 11.11 З 3
{10}
10 км 10/10 330 м
[Sc]
-8.6 -10.5 86 -14 -14 по сезону 1039.4 1021.1 -8.6
18 11.11 ЮЗ 4
{10}
10 км 10/10 420 м
[Sc]
-7.5 -9.7 84 -14 -14 по сезону 1037.7 1019.4
21 11.11 З 5 10 км 10/10 360 м
[Sc]
-8.3 -10.6 83 -16 -16 прохладно 1036.6 1018.3
00 12.11 ЮЗ 5
{10}
10 км 10/10 800 м
[Sc]
-9.0 -11.5 82 -17 -17 прохладно 1034.8 1016.5
03 12.11 ЮЗ 4 10 км 10/10 720 м
[Sc]
-7.4 -9.1 88 -14 -14 по сезону 1033.2 1015.0 -9.0 9
06 12.11 З 4 12 км в посл. час ливневой снег 10/10 300 м
[Cb cap]
-5.8 -7.6 87 -12 -12 по сезону 1032.7 1014.6
09 12.11 ЮЗ 4
{10}
12 км {ливн. осадки} 10/10 420 м
[Cb cap]
-4.8 -7.2 83 -11 -11 по сезону 1032.1 1014.2
12 12.11 З 4
{10}
12 км {ливн. осадки} 10/6 450 м
[Sc Ac trans]
-4.8 -7.2 83 -11 -11 по сезону 1031.7 1013.8
15 12.11 ЮЗ 4 10 км 10/10 420 м
[Sc]
-5.3 -8.2 80 -12 -12 по сезону 1031.8 1013.8 -4.8 0.5
18 12.11 ЮЗ 4 10 км 10/10 420 м
[Sc]
-5.1 -8.0 80 -11 -11 по сезону 1031.0 1013.0
21 12.11 ЮЗ 3 10 км 10/10 420 м
[Sc]
-4.5 -6.8 84 -10 -10 по сезону 1030.0 1012.2
00 13.11 ЮЗ 3 10 км 10/10 400 м
[Sc]
-4.9 -7.0 85 -10 -10 по сезону 1028.5 1011.2
03 13.11 ЮЗ 4 10 км 10/10 400 м
[Sc]
-6.1 -8.0 86 -13 -13 по сезону 1028.5 1010.5 -6.1 9
06 13.11 ЮЗ 3 12 км 10/10 300 м
[Sc]
-6.7 -8.7 86 -12 -12 по сезону 1027.6 1009.6 -6.7
09 13.11 ЮЗ 3 12 км 10/10 330 м
[Sc]
-6.4 -8.3 86 -12 -12 по сезону 1026.3 1008.3
12 13.11 ЮЗ 4 7000 м слабая переохл. морось (гололёд) 10/10 150 м
[St]
-5.6 -6.3 95 -12 -12 по сезону 1024.5 1006.6
15 13.11 ЮЗ 4 10 км {снег, морось} 10/10 240 м
[Frnb]
-5.6 -7.0 90 -12 -12 по сезону 1021.9 1004.1 -5.6 0.1
18 13.11 ЮЗ 4 6000 м слабый ливневой снег 10/10 360 м
[Cb cap]
-5.4 -7.5 85 -12 -12 по сезону 1019.2 1001.5
21 13.11 ЮЗ 4 1800 м слабый ливневой снег 10/6 300 м
[Cb cap Ac trans]
-5.0 -6.3 91 -12 -12 по сезону 1015.7 998.0
00 14.11 ЮЗ 4 10 км слабый ливневой снег 10/10 300 м
[Cb cap]
-4.8 -6.1 91 -11 -11 по сезону 1014.1 996.6
03 14.11 ЮЗ 4 10 км слабый ливневой снег 10/10 360 м
[Cb cap]
-4.2 -6.1 87 -11 -11 по сезону 1013.1 995.6 -5.6 3 11
06 14.11 ЮЗ 4 12 км в посл. час ливневой снег 10/10 210 м
[Cb cap]
-3.3 -4.4 92 -10 -10 по сезону 1013.8 996.4
09 14.11 ЮЗ 3 6000 м слабый ливневой снег 10/10 180 м
[Cb cap]
-2.4 -3.0 96 -8 -8 по сезону 1015.7 998.2
12 14.11 ЮЗ 2 3000 м слабый ливневой снег 10/10 180 м
[Cb cap]
-2.0 -2.9 94 -6 -6 тепло 1017.3 999.8
15 14.11 ЮЗ 4
{10}
10 км в посл. час ливневой снег 10/10 210 м
[Frnb]
-2.1 -3.0 94 -8 -8 по сезону 1018.6 1001.1 -2.0 0.5
18 14.11 ЮЗ 3
{10}
5000 м слабый снег {ливн. осадки} 10/10 210 м
[Frnb Ns]
-2.0 -2.6 96 -7 -7 тепло 1020.1 1002.5
21 14.11 ЮЗ 3 6000 м слабый снег 10/10 210 м
[Frnb Ns]
-1.9 -2.5 96 -7 -7 тепло 1021.6 1004.0
00 15.11 ЮЗ 2 3500 м снег 10/10 150 м
[Frnb Ns]
-1.7 -1.9 99 -6 -6 тепло 1023.4 1005.9
03 15.11 З 2 3800 м снег 10/10 150 м
[Frnb Ns]
-1.5 -2.0 96 -6 -6 тепло 1026.0 1008.4 -2.1 2 11
06 15.11 З 2 4100 м слабый снег 10/10 150 м
[Frnb Ns]
-1.8 -2.0 99 -6 -6 тепло 1028.5 1010.9 -2.7
09 15.11 штиль 0 8000 м дымка {снег} 10/10 90 м
[Frnb]
-1.0 -1.4 97 -2 -2 тепло 1030.2 1012.6
12 15.11 штиль 0 12 км {ливн. осадки, снег} 10/10 120 м
[Cb cap]
-1.2 -1.9 95 -3 -3 тепло 1031.9 1014.2
15 15.11 ЮЗ 3 10 км в посл. час ливневой снег 10/10 120 м
[Cb cap]
-1.4 -1.9 96 -7 -7 тепло 1032.8 1015.1 -1.0 0.5
18 15.11 Ю 2 4000 м слабый ливневой снег 10/10 150 м
[Cb cap]
-1.9 -2.5 96 -6 -6 тепло 1032.5 1014.8
21 15.11 ЮЗ 2 2100 м слабый ливневой снег 10/10 180 м
[Cb cap]
-2.4 -3.0 96 -7 -7 тепло 1031.9 1014.1
00 16.11 Ю 2 2500 м слабый ливневой снег 10/10 180 м
[Cb cap]
-2.6 -3.2 96 -7 -7 тепло 1030.5 1012.7
03 16.11 ЮЗ 3 2100 м снег {ливн. осадки} 10/10 120 м
[Frnb Ns]
-2.3 -2.9 96 -8 -8 по сезону 1029.0 1011.3 -2.6 0.5 14
06 16.11 ЮЗ 3 6000 м слабый ливневой снег 10/10 300 м
[Cb cap]
-1.9 -3.0 92 -7 -7 тепло 1025.5 1007.9
09 16.11 ЮЗ 3 10 км слабый ливневой снег 10/10 300 м
[Cb cap]
-1.5 -2.9 90 -7 -7 тепло 1023.3 1005.8
12 16.11 ЮЗ 2 1000 м ливневой снег 10/10 210 м
[Cb cap]
-1.0 -1.2 99 -5 -5 тепло 1020.9 1003.5
15 16.11 З 2 6000 м слабый ливневой снег 10/10 150 м
[Cb cap]
+0.2 -0.1 98 -4 -4 тепло 1020.5 1003.1 +0.2 5
18 16.11 З 3 10 км {ливн. осадки} 10/10 150 м
[Frnb]
+0.5 +0.2 98 -4 -4 тепло 1020.8 1003.5
21 16.11 З 3 1900 м дымка 10/10 90 м
[St]
+0.1 -0.2 98 -5 -5 тепло 1021.3 1003.9
00 17.11 З 2 1100 м дымка 10/10 90 м
[St]
-0.1 -0.4 98 -4 -4 тепло 1020.9 1003.5
03 17.11 ЮЗ 2 600 м туман ?/? -0.7 -0.7 100 -5 -5 тепло 1020.1 1002.7 -0.7 0.0 14
06 17.11 Ю 3 12 км {туман} 10/6 210 м
[St Ac trans]
+0.2 -0.1 98 -5 -5 тепло 1017.2 999.9
09 17.11 Ю 3 12 км {ливн. осадки} 10/10 210 м
[Cb cap]
+0.4 +0.1 98 -4 -4 тепло 1014.9 997.5
12 17.11 Ю 3 3000 м слабый ливневой снег 10/10 180 м
[Cb cap]
+0.5 +0.2 98 -4 -4 тепло 1012.2 995.1
15 17.11 Ю 3 2100 м снег {ливн. осадки} 10/10 210 м
[Frnb Ns]
+0.5 +0.2 98 -4 -4 тепло 1010.3 993.2 +0.5 3
18 17.11 Ю 2 3000 м слабый ливневой снег 10/10 180 м
[Cb cap]
+0.3 0.0 98 -4 -4 тепло 1009.1 992.0

 

Местоположение метеостанции Ухта (Коми, Россия): широта 63.55 долгота 53.82 высота над уровнем моря 137 м.

В архиве по умолчанию представлена погода в Ухте за последнюю неделю. Архивные данные за месяц целиком и за предыдущие месяцы, начиная с января 2011 года, Вы можете получить, выбрав интересующий диапазон дат из раскрывающегося списка и нажав кнопку "Ввод!".


*Определитесь, кто Вы:
робот инопланетянин человек

Внимание! Время в таблицах - всемирное. Для получения местного времени необходимо прибавить поправку, которая в Ухте равна 3 ч.

Смотрите также архив погоды в соседних городах и на ближайших метеорологических станциях:

Погода в Кедва-Воме (Коми, Россия) (76 км)
Погода в Ираеле (Коми, Россия) (133 км)
Погода в Троицко-Печорском (Коми, Россия) (152 км)
Погода в Помоздино (Коми, Россия) (154 км)
Погода в Весляне (Коми, Россия) (159 км)
Погода в Ижме (Коми, Россия) (161 км)
Погода в Луни (Коми, Россия) (162 км)
Погода в Вуктыле (Коми, Россия) (176 км)
Погода в Усть-Щугоре (Коми, Россия) (202 км)
Погода в Усть-Куломе (Коми, Россия) (208 км)

Пояснения к столбцам:

Ветер - указаны скорость ветра в м/с - средняя за 10 мин, порывы в срок и между сроками (в фигурных скобках) и направление, откуда дует ветер: С - северный, СВ - северо-восточный, В - восточный, ЮВ - юго-восточный, Ю - южный, ЮЗ - юго-западный, З - западный, СЗ - северо-западный.
Видимость - горизонтальная дальность видимости в метрах или километрах. При видимости от 1 до 10 км при отсутствии осадков обычно наблюдается дымка, при ухудшении видимости до 1 км и менее - туман. В сухую погоду видимость может ухудшаться дымом, пылью или мглою.
Явления - указаны атмосферные явления, наблюдавшиеся в срок или в последний час перед сроком; фигурными скобками обозначены явления, наблюдавшиеся между сроками (за 1-3 часа до срока); квадратными скобками обозначены град или гололедные отложения с указанием их диаметра в мм.
Облачность - указаны через наклонную черту общая и нижняя облачность в баллах и высота нижней границы облаков в метрах; квадратными скобками обозначены формы облаков: Ci - перистые, Cs - перисто-слоистые, Cc - перисто-кучевые, Ac - высококучевые, As - высокослоистые, Sc - слоисто-кучевые, Ns - слоисто-дождевые, Cu - кучевые, Cb - кучево-дождевые. Подробнее классификацию облаков см. в Атласе облаков (PDF).
T - Температура воздуха - температура, измеренная на высоте 2 м над землей.
Td - Температура точки росы - температура, при понижении до которой содержащийся в воздухе водяной пар достигнет насыщения.
f - Относительная влажность воздуха - влажноcть воздуха, измеренная на высоте 2 м над землей.
Te - Эффективная температура - температура, которую ощущает одетый по сезону человек в тени. Характеристика душности погоды. При расчете учитывается влияние влажности воздуха и скорости ветра на теплоощущения человека.
Tes - Эффективная температура на солнце - температура, которую ощущает человек, с поправкой на солнечный нагрев. Характеристика знойности погоды. Зависит от высоты солнца над горизонтом, облачности и скорости ветра. Ночью, в пасмурную погоду, а также при ветре 12 м/с и более поправка равна нулю.
P - Атмосферное давление - приведенное к уровню моря атмосферное давление.
Po - Атмосферное давление - измеренное на уровне метеостанции атмосферное давление.
Tmin - Минимальная температура - минимум температуры воздуха на высоте 2 м над землей.
Tmax - Максимальная температура - максимум температуры воздуха на высоте 2 м над землей.
R - Количество осадков - Количество выпавших осадков за период времени, мм. При наведении курсора мыши на число - период времени, за который выпало указанное количество осадков.
R24 - Количество осадков - Количество выпавших осадков за 24 часа, мм.
S - Снежный покров - Высота снежного покрова, см. При наведении курсора мыши на число - состояние снежного покрова и степень покрытия местности в баллах.